Location: Artannes
(47.2040°N, 0.0914°W)
Time: 22:34:33
(UTC+00:00)

Daily predictions for brighter satellites

Satellite Brightness Start Highest point End
(mag) Time Altitude Azimuth Time Altitude Azimuth Time Altitude Azimuth
MINOTAUR 4 R/B 4.0 17:56:34 10° NNE 18:00:02 63° ESE 18:03:28 10° S
Cosmos 1766 4.2 17:57:52 10° SSE 18:01:09 26° E 18:04:28 10° NNE
Cosmos 540 Rocket 3.8 17:56:18 10° NNW 18:01:24 72° WSW 18:06:28 10° SSE
Meteor 2-10 4.4 17:57:10 10° SSE 18:02:34 50° E 18:07:50 10° NNE
Cosmos 1674 Rocket 3.9 17:58:46 10° N 18:03:00 43° ENE 18:07:14 10° SSE
ARGOS 4.1 17:58:02 10° S 18:03:16 54° W 18:08:33 10° NNW
YAOGAN 1 3.2 18:02:39 10° SE 18:06:32 34° ENE 18:10:27 10° N
Cosmos 968 Rocket 4.5 18:03:20 10° SSE 18:07:33 25° E 18:11:47 10° NE
Okean O Rocket 2.4 18:06:34 10° SE 18:10:25 32° ENE 18:14:19 10° N
Cosmos 2084 4.2 18:07:48 10° WSW 18:11:29 45° NW 18:15:10 10° NNE
Lacrosse 4 Rocket 3.3 18:11:03 10° ESE 18:12:17 11° ESE 18:13:31 10° E
SKYMED 2 3.5 18:10:02 10° NNE 18:14:24 79° ESE 18:18:45 10° S
Nadezhda 4 Rocket 4.3 18:09:07 10° SSE 18:15:03 44° E 18:20:58 10° NNE
Meteor 2-5 Rocket 4.5 18:10:18 10° N 18:15:07 30° ENE 18:19:55 10° SE
Cosmos 2285 Rocket 4.2 18:15:15 10° NNW 18:21:31 56° ENE 18:27:46 10° SE
PSLV R/B 3.6 18:18:56 10° SSE 18:22:37 84° ENE 18:26:17 10° NNW
Cosmos 1726 2.1 18:19:36 10° S 18:23:11 59° E 18:26:48 10° NNE
Cosmos 2322 Rocket 3.3 18:19:02 10° SSE 18:23:21 23° E 18:27:40 10° NE
USA 186 3.8 18:22:41 12° E 18:23:36 13° ENE 18:25:17 10° NNE
Cosmos 1470 3.9 18:25:03 10° SE 18:28:01 21° E 18:30:59 10° NE
Cosmos 841 Rocket 3.9 18:23:04 10° NNW 18:28:12 65° WSW 18:33:16 10° S
CZ-4B R/B 3.2 18:23:31 10° SSE 18:28:51 68° ENE 18:34:20 10° N
Cosmos 1980 Rocket 2.5 18:23:27 10° SW 18:29:03 71° WNW 18:34:42 10° NNE
Cosmos 1378 Rocket 3.5 18:25:13 10° N 18:29:38 80° E 18:33:57 10° SSE
Cosmos 1975 Rocket 4.3 18:27:08 10° NNE 18:30:36 22° ENE 18:33:08 14° ESE
Timation 2 Rocket 4.2 18:24:48 10° NNW 18:31:15 78° WSW 18:37:24 10° SSE
ARGOS Delta rocket 4.0 18:26:27 10° NNE 18:31:42 65° E 18:36:37 10° S
DMSP B5D2-2 4.3 18:27:10 10° N 18:32:28 76° WNW 18:37:42 10° SSW
Cosmos 2292 Rocket 4.1 18:33:16 10° SSE 18:38:03 39° E 18:41:46 10° NNE
Meteor 2-14 Rocket 4.4 18:33:48 10° S 18:39:51 83° E 18:45:57 10° N
Cosmos 1733 Rocket 4.0 18:37:50 10° SSW 18:42:11 54° WNW 18:46:34 10° N
USA 215 3.5 18:38:30 10° NE 18:45:01 70° NNW 18:51:30 10° WSW
COBE Rocket 3.9 18:42:12 10° SSE 18:47:03 84° WSW 18:51:48 10° NNW
Cosmos 1844 Rocket 3.3 18:44:18 10° NNW 18:49:36 38° NE 18:52:59 20° ESE
Cosmos 2278 3.8 18:46:46 10° SSW 18:52:28 82° WNW 18:58:11 10° NNE
SL-16 R/B 2.3 18:47:49 10° S 18:53:18 52° ESE 18:58:47 10° NE
Cosmos 1570 Rocket 3.9 18:49:51 10° NNW 18:55:08 77° ENE 19:00:22 10° SSE
Landsat 5 4.3 18:52:09 10° NNE 18:56:09 31° E 19:00:05 10° SSE
Cosmos 1092 Rocket 4.1 18:50:27 10° SSE 18:56:30 51° E 19:02:32 10° NNE
Resurs 01 Rocket 3.4 19:01:19 15° NE 19:01:19 15° NE 19:03:27 10° NNE
DMSP B5D1-3 4.4 18:56:30 10° NNE 19:01:38 74° ESE 19:06:45 10° S
COSMO-SKYMED 1 4.3 18:58:22 10° N 19:02:19 35° WNW 19:06:16 10° SW
Meteor 2-21 Rocket 4.4 18:56:31 10° S 19:02:34 86° E 19:08:39 10° N
SJ-6B 3.3 19:02:07 32° E 19:02:54 36° ENE 19:06:24 10° N
Cosmos 2278 Rocket 4.3 19:01:57 10° N 19:03:54 12° NNE 19:05:41 10° NE
HJ-1C 3.8 19:01:06 10° S 19:04:09 56° W 19:07:14 10° NNW
Cosmos 1437 Rocket 2.5 19:01:47 10° S 19:05:31 83° ESE 19:09:16 10° NNE
H-2A R/B 4.2 19:07:12 16° NE 19:07:12 16° NE 19:08:48 10° NNE
Cosmos 2263 Rocket 3.5 19:03:27 10° NW 19:08:45 41° WSW 19:14:01 10° S
Meteor 1-24 Rocket 3.5 19:05:23 10° N 19:10:41 70° ENE 19:16:04 10° SSE
Resurs 1-3 4.2 19:11:26 33° E 19:12:04 35° ENE 19:16:03 10° N
SL-4 R/B 3.0 19:11:06 10° WNW 19:15:24 47° SW 19:17:52 24° SSE
Meteor 2-16 Rocket 4.4 19:10:23 10° S 19:16:32 88° W 19:22:44 10° N
Feng Yun 1-1 Rocket 4.3 19:11:20 10° SSE 19:16:49 80° WSW 19:22:15 10° NNW
Cosmos 2084 Rocket 3.1 19:14:57 10° NW 19:18:48 80° NE 19:19:51 47° SE
USA 267 4.0 19:14:27 10° SSE 19:20:42 49° SW 19:27:02 10° WNW
Okean-O 2.7 19:20:29 40° ESE 19:21:42 53° ENE 19:26:01 10° N
ISS -0.9 19:20:38 10° WSW 19:22:15 13° SW 19:23:52 10° SSW
Cosmos 1486 Rocket 4.3 19:17:47 10° S 19:22:48 44° ESE 19:27:52 10° NNE
CZ-4 R/B 2.1 19:18:55 10° S 19:23:00 55° W 19:27:08 10° NNW
OBJECT-B 2.0 19:24:55 25° N 19:24:55 25° N 19:26:11 10° NNW
Cosmos 2208 Rocket 4.1 19:18:24 10° NNW 19:23:48 79° WSW 19:28:15 16° SSE
Cosmos 1844 3.8 19:18:46 10° NNW 19:24:15 56° ENE 19:26:12 37° ESE
IGS 5A 3.4 19:24:37 47° SE 19:25:34 62° ENE 19:29:40 10° N
DNEPR-1 R/B 3.9 19:22:14 10° SSW 19:26:46 56° ESE 19:30:36 19° NE
Meteor 1-22 Rocket 4.1 19:22:28 10° S 19:27:53 90° E 19:33:35 10° NNE
Cosmos 2333 Rocket4.519:36:34NE19:36:34NE19:24:21SSE
Helios 1B 4.5 19:25:45 10° NNE 19:30:06 87° WNW 19:34:25 10° SSW
Cosmos 1300 Rocket 3.5 19:30:14 54° E 19:30:21 54° E 19:34:37 10° NNE
CSL-04 Debris 4.0 19:28:02 20° SSE 19:31:50 82° ENE 19:37:15 10° NNW
Cosmos 1428 Rocket 4.4 19:25:52 10° S 19:32:04 90° SE 19:38:22 10° N
Cosmos 1627 Rocket 4.3 19:29:26 10° S 19:35:33 87° E 19:41:43 10° N
Cosmos 2360 Rocket 2.2 19:32:20 10° S 19:37:48 55° ESE 19:43:19 10° NE
Cosmos 1782 Rocket 3.7 19:34:24 10° SSW 19:38:43 71° W 19:43:06 10° N
USA 81 4.0 19:34:04 10° N 19:39:24 88° WSW 19:43:22 18° S
Cosmos 1025 Rocket 3.1 19:39:05 10° NNW 19:43:25 77° W 19:44:51 41° S
Okean O Rocket 3.5 19:42:57 10° SSW 19:46:45 29° W 19:50:35 10° NW
Cosmos 968 Rocket 4.4 19:43:58 10° SW 19:49:02 49° WNW 19:54:08 10° NNE
Lacrosse 4 Rocket 1.3 19:46:05 10° SW 19:50:11 81° WNW 19:50:17 80° NNW
Cosmos 1417 Rocket 4.5 19:44:19 10° N 19:50:20 54° ENE 19:51:03 52° ESE
Cosmos 2026 Rocket 4.1 19:46:05 10° SSW 19:52:08 73° W 19:58:13 10° N
USA 186 3.1 19:55:51 42° W 19:55:51 42° W 19:58:45 10° NNW
CSL-04 Rocket 3.8 19:55:05 30° S 19:57:48 69° WSW 20:03:13 10° NNW
ATLAS 2AS CENTAUR R/B 4.3 19:53:01 10° NW 19:58:46 24° NNE 20:01:35 19° NE
MOS 1 4.3 20:01:33 57° ENE 20:01:33 57° ENE 20:07:00 10° N
Cosmos 1553 Rocket 3.9 19:57:47 10° N 20:04:12 89° E 20:06:34 42° S
Landsat 7 3.7 20:04:06 78° SW 20:04:17 81° WSW 20:09:02 10° NNW
deb Chang Zheng 4 4.4 20:05:57 41° N 20:05:57 41° N 20:08:42 10° NNW
Cosmos 2322 Rocket 2.6 20:01:14 10° SW 20:06:54 64° WNW 20:12:36 10° NNE
SPOT 1/Viking Rocket 3.8 20:07:53 53° NNE 20:07:53 53° NNE 20:12:07 10° N
Cosmos 1975 Rocket 4.3 20:04:29 10° NNW 20:08:37 40° W 20:10:19 28° SW
NOSS 3-4 (A) 4.1 20:04:27 10° NW 20:11:03 51° NE 20:12:04 47° ENE
NOSS 3-4 (C) 4.1 20:04:34 10° NW 20:11:09 50° NE 20:12:10 47° ENE
Ariane Rocket 4.1 20:16:26 32° NNE 20:16:26 32° NNE 20:19:31 10° N
NOSS 3-3 (A) 3.7 20:14:58 10° SW 20:20:03 75° SSW 20:20:03 75° SSW
NOSS 3-3 (C) 3.8 20:15:04 10° SW 20:19:58 70° SSW 20:19:58 70° SSW
Aureole 1 Rocket 3.9 20:17:26 10° SSW 20:24:54 86° ESE 20:30:46 10° NNE
USA 281 4.2 20:27:40 32° NE 20:27:40 32° NE 20:32:51 10° NNW
USA 215 4.2 20:24:15 25° NE 20:27:29 40° N 20:33:29 10° WNW
Cosmos 1844 Rocket 3.7 20:28:16 10° NW 20:33:31 40° WSW 20:34:40 36° SW
Resurs 01 Rocket 3.2 20:38:53 31° NNW 20:38:53 31° NNW 20:41:17 10° NNW
SL-16 R/B 3.9 20:32:42 10° WSW 20:37:40 31° NW 20:42:40 10° NNE
Terra 4.3 20:42:43 13° NNE 20:42:43 13° NNE 20:43:23 10° N
Cosmos 2315 Rocket 4.5 20:33:07 10° N 20:37:56 49° NNE 20:37:56 49° NNE
Cosmos 1943 Rocket 4.3 20:36:53 10° N 20:38:59 15° NNE 20:38:59 15° NNE
Cosmos 2278 Rocket 3.5 20:44:10 10° NNW 20:47:32 32° N 20:47:32 32° N
Cosmos 2360 Rocket 3.9 21:17:15 10° WSW 21:22:08 29° NW 21:27:02 10° N
ATLAS 2AS CENTAUR R/B 3.9 21:44:26 10° NW 21:49:00 37° N 21:49:00 37° N
